STARLINK-2606 (48386 NORAD) Tracking and Keplerian Element Data

This shows tracking and keplerian element data for the satellite.

Feedback or suggestion? Click here.




ElementValue
Catalog48386
NameSTARLINK-2606
Epoch Orbit1468
Epoch Day215.25002315
Epoch Year2021
RAAN325.9013
Inclination53.0543
Eccentricity0.0001017
Argument of Perigee100.5527
Mean Anonmoly199.6501
Mean Motion15.06382138
Decay Rate0.00035638
L11 48386U 21038AK 21215.25002315 .00035638 00000-0 24005-2 0 9990
L22 48386 53.0543 325.9013 0001017 100.5527 199.6501 15.06382138 14680

Live tracking and technical data element details for STARLINK-2606 (NORAD 48386). STARLINK-2606 can be tracked NOW for your location showing map with azimuth and elevation plus other details from your city location.

Track the satellite on the map from your city or location and see movement details for azimuth, elevation, latitude, longitude, range, height, and movement on the map or in text.







IsCatalogInMostPopularTable: catalog: 48386, numindb: 28
Update: records affected: 1



GetName: 48386 STARLINK-2606

Hit Count: updated at: Wed, 04 Aug 2021 00:20:55 GMT